Onweer radar Meer informatie blitzortung!


Regen radar Meer informatie rain snow radar


Bezoek onze andere website:

Template documentation
and downloads

And another site



15 daagse weersverwachting 0.000N 0.000E

  • Overzicht
  • Per uur
  • 15 dagen
  • Extra
  • Vergelijk
  • Kaarten
  • Dagkaart
  • Meer »
  • Info
  • Statistieken
  • Directe link
    Temp 6h Neerslag Wind  
 02:00     19:09    Daglengte: 17:09 Vandaag
18:00
20°
7.5 mm
4
 02:02     19:07    Daglengte: 17:05 Morgen
00:00
18°
 
4
06:00
19°
4.3 mm
5
warningclass
12:00
22°
4.4 mm
7
18:00
19°
 
5
 02:04     19:04    Daglengte: 17:00 Vrijdag 30 Jul
00:00
16°
 
4
06:00
17°
1.8 mm
4
12:00
17°
12.9 mm
4
warningclass
18:00
16°
40.0 mm
2
 02:07     19:02    Daglengte: 16:55 Zaterdag 31 Jul
00:00
14°
11.3 mm
3
06:00
16°
5.3 mm
2
12:00
20°
21.7 mm
4
Locatie info
Region:
Latitude: 60.4202°N
Longitude: 23.2372°E
0 masl
Temp/Neerslag /Baro Onweer/Dauwpunt
    Temp Baro 1h Neerslag Dauwpunt Wind UV Bewolking  
 02:00     19:09    Daglengte: 17:09 Vandaag
17:00
20°
1003.3 hPa
54%
17.2°
5
Windvlaag: 11.1 m/s
60%
18:00
20°
1003.2 hPa
14%
16.9°
4
Windvlaag: 9.9 m/s
27%
19:00
19°
1003.3 hPa
17%
17.2°
4
Windvlaag: 9.3 m/s
47%
20:00
19°
1003.4 hPa
19%
17.5°
4
Windvlaag: 8.9 m/s
62%
21:00
19°
1003.2 hPa
18%
17.3°
4
Windvlaag: 8.8 m/s
57%
22:00
19°
1002.8 hPa
16%
17.5°
4
Windvlaag: 8.5 m/s
54%
23:00
19°
1002.4 hPa
22%
17.7°
4
Windvlaag: 9.3 m/s
55%
 02:02     19:07    Daglengte: 17:05 Morgen
00:00
18°
1001.9 hPa
65%
17.8°
4
Windvlaag: 8.9 m/s
55%
01:00
18°
1001.4 hPa
16%
17.8°
4
Windvlaag: 8 m/s
58%
02:00
18°
1001.1 hPa
14%
17.7°
4
Windvlaag: 7.8 m/s
62%
03:00
18°
1000.9 hPa
16%
17.8°
3
Windvlaag: 7.4 m/s
57%
04:00
19°
1000.6 hPa 1.5 mm
68%
17.9°
4
Windvlaag: 7.4 m/s
41%
05:00
19°
1000.2 hPa 1.5 mm
75%
18.0°
4
Windvlaag: 8.1 m/s
69% warningclass
06:00
19°
1000.0 hPa 1.2 mm
74%
18.0°
5
Windvlaag: 8.1 m/s
75% warningclass
07:00
20°
999.7 hPa 1.5 mm
77%
18.0°
5
Windvlaag: 8.3 m/s
69% warningclass
08:00
20°
999.6 hPa 1.5 mm
82%
17.7°
6
Windvlaag: 8.4 m/s
61% warningclass
09:00
20°
999.5 hPa 1.4 mm
82%
17.5°
6
Windvlaag: 8.3 m/s
62%
10:00
21°
999.4 hPa
82%
16.6°
6
Windvlaag: 8.3 m/s
31%
11:00
22°
999.3 hPa
80%
13.9°
7
Windvlaag: 8.7 m/s
30%
12:00
22°
999.1 hPa
74%
14.6°
7
Windvlaag: 9 m/s
38%
13:00
21°
998.9 hPa
66%
14.2°
7
Windvlaag: 9 m/s
8%
14:00
22°
998.8 hPa
62%
13.5°
7
Windvlaag: 9 m/s
4%
15:00
21°
998.6 hPa
18%
13.9°
6
Windvlaag: 8.4 m/s
8%
16:00
21°
998.3 hPa
14%
14.8°
6
Windvlaag: 8.1 m/s
7%
17:00
20°
998.1 hPa
14%
14.3°
6
Windvlaag: 8.1 m/s
10%
18:00
19°
997.8 hPa
18%
15.2°
5
Windvlaag: 8.3 m/s
9%
19:00
18°
997.5 hPa
16%
17.0°
4
Windvlaag: 7.9 m/s
32%
20:00
18°
997.3 hPa
14%
16.9°
5
Windvlaag: 9.1 m/s
14%
21:00
17°
996.8 hPa
14%
16.1°
4
Windvlaag: 8.7 m/s
22%
22:00
17°
996.2 hPa
18%
15.8°
4
Windvlaag: 8 m/s
47%
23:00
16°
995.8 hPa
77%
15.4°
4
Windvlaag: 9.4 m/s
8%
 02:04     19:04    Daglengte: 17:00 Vrijdag 30 Jul
00:00
16°
995.4 hPa
74%
14.9°
4
Windvlaag: 8.1 m/s
9%
01:00
16°
994.7 hPa
18%
14.7°
3
Windvlaag: 7.2 m/s
6%
02:00
16°
994.3 hPa
14%
14.8°
3
Windvlaag: 6.6 m/s
25%
03:00
16°
993.8 hPa
14%
14.9°
3
Windvlaag: 7 m/s
18%
04:00
16°
993.4 hPa
14%
14.8°
4
Windvlaag: 8.6 m/s
62%
05:00
16°
993.1 hPa 1.8 mm
80%
14.9°
4
Windvlaag: 9.4 m/s
64%
06:00
17°
992.9 hPa
32%
15.0°
4
Windvlaag: 8.7 m/s
68%
07:00
17°
992.5 hPa 1.6 mm
78%
14.9°
4
Windvlaag: 9.1 m/s
47%
08:00
17°
992.3 hPa 1.9 mm
82%
15.4°
5
Windvlaag: 10.9 m/s
85%
09:00
17°
992.5 hPa 2.1 mm
100%
11.5°
5
Windvlaag: 10.4 m/s
80%
10:00
18°
992.5 hPa 1.9 mm
100%
11.7°
5
Windvlaag: 9.5 m/s
88%
11:00
17°
992.1 hPa 2.5 mm
100%
13.6°
4
Windvlaag: 10 m/s
85%
12:00
17°
991.8 hPa 2.9 mm
100%
14.6°
4
Windvlaag: 10.7 m/s
69% warningclass
13:00
18°
991.2 hPa 5.2 mm
32%
13.9°
4
Windvlaag: 10.5 m/s
73%
14:00
18°
990.6 hPa 5.4 mm
21%
12.9°
4
Windvlaag: 9.9 m/s
69%
15:00
18°
990.2 hPa 6.1 mm
21%
13.0°
5
Windvlaag: 10.4 m/s
81%
16:00
16°
989.8 hPa 8.7 mm
21%
13.3°
3
Windvlaag: 9.1 m/s
77%
17:00
17°
989.6 hPa 7.3 mm
21%
12.4°
2
Windvlaag: 7.3 m/s
70%
18:00
16°
989.6 hPa 7.3 mm
21%
13.3°
2
Windvlaag: 6.4 m/s
35%
19:00
16°
989.7 hPa 5.8 mm
21%
13.2°
2
Windvlaag: 4.9 m/s
48%
20:00
15°
989.5 hPa 5.5 mm
21%
13.3°
2
Windvlaag: -0.4 m/s
66%
21:00
14°
989.8 hPa
21%
12.7°
4
Windvlaag: -4.5 m/s
48%
22:00
14°
990.6 hPa
21%
12.8°
4
Windvlaag: -4.5 m/s
29%
23:00
14°
991.2 hPa
21%
12.9°
3
Windvlaag: -3.6 m/s
35%
 02:07     19:02    Daglengte: 16:55 Zaterdag 31 Jul
00:00
14°
991.9 hPa
21%
13.0°
3
Windvlaag: -2.6 m/s
49%
01:00
14°
992.7 hPa
21%
13.1°
3
Windvlaag: -2.4 m/s
61%
02:00
14°
993.4 hPa
21%
13.4°
2
Windvlaag: 0.2 m/s
65%
03:00
14°
993.8 hPa
21%
13.8°
2
Windvlaag: -0.3 m/s
71%
04:00
14°
994.2 hPa
21%
14.0°
2
Windvlaag: -0.1 m/s
82%
05:00
15°
994.7 hPa
25%
14.6°
2
Windvlaag: 0.1 m/s
91%
06:00
16°
995.1 hPa 5.3 mm
100%
14.1°
2
Windvlaag: 0.1 m/s
57%
07:00
19°
995.7 hPa 5.4 mm
100%
14.5°
3
Windvlaag: 5.6 m/s
60%
08:00
20°
995.9 hPa
100%
14.2°
3
Windvlaag: 5.2 m/s
88%
09:00
21°
996.1 hPa
100%
13.9°
3
Windvlaag: 4.6 m/s
99%
10:00
21°
996.3 hPa 5.4 mm
100%
14.5°
4
Windvlaag: 5 m/s
95%
11:00
21°
996.3 hPa 5.4 mm
100%
12.3°
4
Windvlaag: 6.5 m/s
92%
12:00
20°
996.4 hPa 5.5 mm
100%
11.0°
4
Windvlaag: 6.7 m/s
90%
13:00
23°
995.7 hPa 15.5 mm
100%
13.6°
5
Windvlaag: 6.4 m/s
78%
14:00
23°
995.9 hPa 15.5 mm
100%
13.2°
5
Windvlaag: 5.6 m/s
94%
15:00
22°
995.8 hPa 15.5 mm
100%
14.0°
4
Windvlaag: 5.5 m/s
94%
16:00
20°
996.5 hPa 16.0 mm
100%
16.8°
5
Windvlaag: 8.2 m/s
100% warningclass
Temp/Neerslag /Baro Onweer/Dauwpunt
    Temp Baro Neerslag Dauwpunt Wind Bewolking  
 02:00     19:09    Daglengte: 17:09 Vandaag
18:00
20°
1003.2 hPa 7.5 mm 16.9°
4
27%
21:00
19°
1003.2 hPa   17.3°
4
57%
 02:02     19:07    Daglengte: 17:05 Morgen
00:00
18°
1001.9 hPa   17.8°
4
55%
03:00
18°
1000.9 hPa   17.8°
3
57%
06:00
19°
1000.0 hPa 4.3 mm 18.0°
5
75% warningclass
09:00
20°
999.5 hPa 4.4 mm 17.5°
6
62%
12:00
22°
999.1 hPa   14.6°
7
38%
15:00
21°
998.6 hPa   13.9°
6
8%
18:00
19°
997.8 hPa   15.2°
5
9%
21:00
17°
996.8 hPa   16.1°
4
22%
 02:04     19:04    Daglengte: 17:00 Vrijdag 30 Jul
00:00
16°
995.4 hPa   14.9°
4
9%
03:00
16°
993.8 hPa   14.9°
3
18%
06:00
17°
992.9 hPa 1.8 mm 15.0°
4
68%
09:00
17°
992.5 hPa 5.6 mm 11.5°
5
80%
12:00
17°
991.8 hPa 7.3 mm 14.6°
4
69% warningclass
15:00
18°
990.2 hPa 16.7 mm 13.0°
5
81%
18:00
16°
989.6 hPa 23.3 mm 13.3°
2
35%
21:00
14°
989.8 hPa 11.3 mm 12.7°
4
48%
 02:07     19:02    Daglengte: 16:55 Zaterdag 31 Jul
00:00
14°
991.9 hPa   13.0°
3
49%
03:00
14°
993.8 hPa   13.8°
2
71%
06:00
16°
995.1 hPa 5.3 mm 14.1°
2
57%
09:00
21°
996.1 hPa 5.4 mm 13.9°
3
99%
12:00
20°
996.4 hPa 16.3 mm 11.0°
4
90%
15:00
22°
995.8 hPa 46.6 mm 14.0°
4
94%
18:00
19°
996.2 hPa 49.2 mm 15.9°
3
79%
21:00
15°
996.8 hPa 29.0 mm 14.8°
3
1%
 02:09     18:59    Daglengte: 16:50 Zondag 01 Aug
00:00
15°
995.5 hPa 30.7 mm 14.4°
3
1%
03:00
14°
994.2 hPa 33.4 mm 13.7°
2
1%
06:00
16°
993.6 hPa 34.4 mm 15.4°
1
1%
09:00
20°
995.0 hPa 36.0 mm 16.2°
3
1%
12:00
23°
995.9 hPa 36.5 mm 11.5°
4
1%
15:00
21°
997.9 hPa 36.7 mm 12.9°
5
0%
18:00
17°
999.6 hPa 36.8 mm 14.6°
4
0%
21:00
15°
1000.5 hPa 36.9 mm 14.4°
2
0%
 02:12     18:57    Daglengte: 16:45 Maandag 02 Aug
00:00
14°
1001.3 hPa 37.1 mm 13.5°
2
0%
03:00
13°
1001.2 hPa 37.1 mm 13.1°
1
1%
06:00
17°
1001.4 hPa 37.2 mm 14.3°
1
1%
09:00
20°
1001.5 hPa 37.8 mm 13.2°
3
1%
12:00
22°
1001.2 hPa 37.9 mm 10.2°
4
1%
15:00
20°
1001.7 hPa 37.9 mm 10.6°
4
1%
18:00
16°
1001.6 hPa 37.9 mm 11.7°
2
0%
21:00
13°
1002.0 hPa 37.9 mm 11.8°
2
0%
 02:14     18:54    Daglengte: 16:40 Dinsdag 03 Aug
00:00
12°
1002.0 hPa 37.9 mm 10.8°
2
0%
03:00
11°
1002.5 hPa 37.9 mm 10.3°
2
1%
06:00
16°
1002.5 hPa 37.9 mm 10.7°
3
1%
09:00
20°
1003.0 hPa 37.9 mm 10.5°
3
0%
12:00
20°
1003.5 hPa 37.9 mm 9.7°
3
1%
15:00
20°
1004.5 hPa 37.9 mm 7.6°
4
1%
18:00
15°
1005.9 hPa 37.9 mm 7.7°
3
1%
21:00
10°
1007.8 hPa 37.9 mm 7.3°
2
0%
 02:16     18:51    Daglengte: 16:35 Woensdag 04 Aug
00:00
Voelt als: 8.1°
1008.6 hPa 37.9 mm 6.9°
2
0%
03:00
Voelt als: 8.6°
1009.2 hPa 37.9 mm 6.4°
2
0%
06:00
16°
1010.1 hPa 37.9 mm 7.5°
2
1%
09:00
20°
1010.1 hPa 37.9 mm 5.3°
2
1%
12:00
19°
1011.1 hPa 37.9 mm 10.0°
5
1%
15:00
15°
1012.2 hPa   11.6°
3
1%
18:00
13°
1012.5 hPa 76.7 mm 12.1°
1
1%
 02:19     18:49    Daglengte: 16:30 Donderdag 05 Aug
00:00
13°
1014.3 hPa 77.2 mm 11.8°
1
1%
06:00
15°
1015.7 hPa 77.2 mm 11.8°
1
1%
12:00
22°
1015.5 hPa 77.2 mm 7.6°
2
0%
18:00
16°
1016.8 hPa 77.2 mm 7.6°
2
1%
 02:21     18:46    Daglengte: 16:25 Vrijdag 06 Aug
00:00
11°
1018.2 hPa 77.2 mm 6.4°
1
0%
06:00
18°
1018.1 hPa 77.2 mm 9.8°
2
0%
12:00
23°
1017.5 hPa 77.2 mm 10.1°
3
1%
18:00
18°
1016.7 hPa 77.2 mm 11.3°
2
1%
 02:24     18:43    Daglengte: 16:19 Zaterdag 07 Aug
00:00
15°
1015.8 hPa 77.2 mm 11.8°
3
1%
06:00
18°
1009.8 hPa 0.6 mm 12.3°
2
51%
12:00
21°
1009.4 hPa 0.4 mm 12.5°
2
59%
18:00
18°
1008.8 hPa 0.8 mm 13.4°
1
65%
 02:26     18:41    Daglengte: 16:15 Zondag 08 Aug
00:00
15°
1008.6 hPa 0.4 mm 12.7°
2
74%
06:00
17°
1008.1 hPa 1.8 mm 14.0°
2
73%
12:00
20°
1008.9 hPa 2.5 mm 14.1°
1
71%
18:00
17°
1009.4 hPa 0.9 mm 13.4°
1
69%
 02:29     18:38    Daglengte: 16:09 Maandag 09 Aug
00:00
14°
1010.2 hPa 0.2 mm 12.5°
1
66%
06:00
17°
1010.4 hPa 0.4 mm 13.8°
1
56%
12:00
21°
1011.3 hPa 0.8 mm 13.4°
2
60%
18:00
17°
1011.5 hPa 1.2 mm 13.8°
1
65%
 02:31     18:35    Daglengte: 16:04 Dinsdag 10 Aug
00:00
15°
1012.0 hPa 0.5 mm 13.2°
1
69%
06:00
17°
1011.6 hPa 0.5 mm 14.4°
1
76%
12:00
21°
1011.6 hPa 1.4 mm 14.4°
2
72%
18:00
17°
1010.8 hPa 1.6 mm 14.2°
1
80%
 02:33     18:32    Daglengte: 15:59 Woensdag 11 Aug
00:00
15°
1010.5 hPa 1.0 mm 13.7°
1
70%
06:00
17°
1009.9 hPa 0.7 mm 14.3°
1
69%
12:00
21°
1010.4 hPa 1.4 mm 13.5°
2
68%
18:00
17°
1010.4 hPa 0.6 mm 13.7°
1
61%
 02:36     18:29    Daglengte: 15:53 Donderdag 12 Aug
00:00
14°
1010.5 hPa 0.4 mm 12.8°
0
53%
06:00
17°
1009.9 hPa 0.5 mm 13.8°
1
57%
12:00
21°
1009.5 hPa 0.8 mm 13.6°
1
62%
  CAPE Lifted Index Hail Supercell Tornado SRH 3km CL BTM PRES CL TOP PRES Swiss DWD icon SMHI TS
 02:00     19:09    Daglengte: 17:09 Vandaag
17:00 39 J/kg -0.5 K 0 % 0 % 0 % 0 m²/s² 0 0 1.84 3
18:00 150 J/kg -1.1 K 0 % 0 % 0 % 0 m²/s² 0 0 0.88 2
19:00 324 J/kg -1.8 K 0 % 0 % 0 % 0 m²/s² 0 0 0.3 3
20:00 433 J/kg -1.8 K 0 % 0 % 0 % 0 m²/s² 0 0 0.66 2
21:00 427 J/kg -1.6 K 0 % 0 % 0 % 0 m²/s² 0 0 1.1 3
22:00 480 J/kg -1.6 K 0 % 0 % 0 % 0 m²/s² 0 0 1.01 2
23:00 259 J/kg -1.1 K 0 % 0 % 0 % 0 m²/s² 0 0 1.15 2
 02:02     19:07    Daglengte: 17:05 Morgen
00:00 87 J/kg -0.3 K 0 % 0 % 0 % 0 m²/s² 0 0 1.74 2
01:00 125 J/kg -0.4 K 0 % 0 % 0 % 0 m²/s² 0 0 1.13 3
02:00 252 J/kg -1.2 K 0 % 0 % 0 % 0 m²/s² 0 0 0.39 3
03:00 397 J/kg -2.0 K 0 % 0 % 0 % 0 m²/s² 0 0 -0.35 2
04:00 542 J/kg -2.4 K 0 % 0 % 0 % 0 m²/s² 0 0 -1.41 3
05:00 844 J/kg -3.4 K 0 % 0 % 0 % 0 m²/s² 0 0 -2.35 80
06:00 1172 J/kg -4.4 K 0 % 0 % 0 % 0 m²/s² 0 0 -3.35 80
07:00 1250 J/kg -4.6 K 0 % 0 % 0 % 0 m²/s² 0 0 -3.01 80
08:00 1015 J/kg -3.6 K 0 % 0 % 0 % 0 m²/s² 0 0 -2.25 80
09:00 750 J/kg -2.8 K 0 % 0 % 0 % 0 m²/s² 0 0 -1.27 80
10:00 645 J/kg -2.4 K 0 % 0 % 0 % 0 m²/s² 0 0 1.38 80
11:00 454 J/kg -1.8 K 0 % 0 % 0 % 0 m²/s² 0 0 1.89 80
12:00 331 J/kg -1.4 K 0 % 0 % 0 % 0 m²/s² 0 0 1.93 3
13:00 148 J/kg -0.6 K 0 % 0 % 0 % 0 m²/s² 0 0 2.13 3
14:00 49 J/kg 0.1 K 0 % 0 % 0 % 0 m²/s² 0 0 3.25 2
15:00 121 J/kg 0.0 K 0 % 0 % 0 % 0 m²/s² 0 0 2.07 1
16:00 115 J/kg 0.4 K 0 % 0 % 0 % 0 m²/s² 0 0 2.35 1
17:00 241 J/kg -0.1 K 0 % 0 % 0 % 0 m²/s² 0 0 1.19 1
18:00 271 J/kg -0.2 K 0 % 0 % 0 % 0 m²/s² 0 0 0.94 2
19:00 303 J/kg -0.2 K 0 % 0 % 0 % 0 m²/s² 0 0 3.55 2
20:00 375 J/kg -0.1 K 0 % 0 % 0 % 0 m²/s² 0 0 2.75 1
21:00 241 J/kg 1.5 K 0 % 0 % 0 % 0 m²/s² 0 0 4.92 2
22:00 235 J/kg 1.1 K 0 % 0 % 0 % 0 m²/s² 0 0 2.42 2
23:00 66 J/kg 2.2 K 0 % 0 % 0 % 0 m²/s² 0 0 6.58 2
 02:04     19:04    Daglengte: 17:00 Vrijdag 30 Jul
00:00 3 J/kg 2.1 K 0 % 0 % 0 % 0 m²/s² 0 0 6.27 2
01:00 60 J/kg 0.3 K 0 % 0 % 0 % 0 m²/s² 0 0 4.14 2
02:00 341 J/kg -2.2 K 0 % 0 % 0 % 0 m²/s² 0 0 0.77 2
03:00 488 J/kg -2.5 K 0 % 0 % 0 % 0 m²/s² 0 0 -1.12 2
04:00 572 J/kg -3.1 K 0 % 0 % 0 % 0 m²/s² 0 0 -2.38 3
05:00 737 J/kg -3.9 K 0 % 0 % 0 % 0 m²/s² 0 0 -1.62 3
06:00 758 J/kg -3.4 K 0 % 0 % 0 % 0 m²/s² 0 0 -2.35 3
07:00 458 J/kg -1.5 K 0 % 0 % 0 % 0 m²/s² 0 0 0.15 3
08:00 568 J/kg -2.4 K 0 % 0 % 0 % 0 m²/s² 0 0 -1.71 80
09:00 199 J/kg -1.0 K 0 % 0 % 0 % 0 m²/s² 0 0 0.41 80
10:00 514 J/kg -2.4 K 0 % 0 % 0 % 0 m²/s² 0 0 -0.81 80
11:00 403 J/kg -2.0 K 0 % 0 % 0 % 0 m²/s² 0 0 -0.98 80
12:00 852 J/kg -3.6 K 0 % 0 % 0 % 0 m²/s² 0 0 -2.19 80
13:00 676 J/kg -2.7 K 0 % 0 % 0 % 0 m²/s² 0 0 -0.69 2
14:00 559 J/kg -1.7 K 0 % 0 % 0 % 0 m²/s² 0 0 -0.35 3
15:00 476 J/kg -2.3 K 0 % 0 % 0 % 0 m²/s² 0 0 -0.92 2
16:00 65 J/kg 0.2 K 0 % 0 % 0 % 0 m²/s² 0 0 0.65 2
17:00 80 J/kg -0.1 K 0 % 0 % 0 % 0 m²/s² 0 0 1.01 2
18:00 8 J/kg 0.0 K 0 % 0 % 0 % 0 m²/s² 0 0 1.23 1
19:00 0 J/kg 0.5 K 0 % 0 % 0 % 0 m²/s² 0 0 1.46 1
20:00 19 J/kg 0.0 K 0 % 0 % 0 % 0 m²/s² 0 0 1.44 2
21:00 0 J/kg -0.1 K 0 % 0 % 0 % 0 m²/s² 0 0 1.34 0
22:00 0 J/kg 1.6 K 0 % 0 % 0 % 0 m²/s² 0 0 3.97 1
23:00 0 J/kg 2.3 K 0 % 0 % 0 % 0 m²/s² 0 0 5.12 1
 02:07     19:02    Daglengte: 16:55 Zaterdag 31 Jul
00:00 0 J/kg 2.3 K 0 % 0 % 0 % 0 m²/s² 0 0 5.21 1
01:00 0 J/kg 2.5 K 0 % 0 % 0 % 0 m²/s² 0 0 5.68 2
02:00 0 J/kg 3.1 K 0 % 0 % 0 % 0 m²/s² 0 0 7.57 1
03:00 0 J/kg 3.2 K 0 % 0 % 0 % 0 m²/s² 0 0 8.3 1
04:00 1 J/kg 3.0 K 0 % 0 % 0 % 0 m²/s² 0 0 7.26 2
05:00 0 J/kg 3.6 K 0 % 0 % 0 % 0 m²/s² 0 0 5.34 2
06:00 0 J/kg 2.3 K 0 % 0 % 0 % 0 m²/s² 0 0 4.58 2
07:00 20 J/kg 0.9 K 0 % 0 % 0 % 0 m²/s² 0 0 4.47 80
08:00 166 J/kg -0.4 K 0 % 0 % 0 % 0 m²/s² 0 0 3.74 3
09:00 548 J/kg -1.8 K 0 % 0 % 0 % 0 m²/s² 0 0 2.46 3
10:00 869 J/kg -3.0 K 0 % 0 % 0 % 0 m²/s² 0 0 1.62 80
11:00 657 J/kg -2.4 K 0 % 0 % 0 % 0 m²/s² 0 0 1.98 80
12:00 495 J/kg -1.9 K 0 % 0 % 0 % 0 m²/s² 0 0 1.94 80
13:00 340 J/kg -1.6 K 0 % 0 % 0 % 0 m²/s² 0 0 1.97
14:00 301 J/kg -1.8 K 0 % 0 % 0 % 0 m²/s² 0 0 -0.18
15:00 525 J/kg -2.6 K 0 % 0 % 0 % 0 m²/s² 0 0 -1.91
16:00 1188 J/kg -4.6 K 0 % 0 % 0 % 0 m²/s² 0 0 -3.82
Temp Baro Wind Neerslag
  EWN Forecast EWN WRFDA DWD ICON FMI HIRLAM MET Norway GFS
 02:00     19:09    Daglengte: 17:09 Vandaag
18:00 19.6° 1003.2 hPa 4.1 m/s 7.5 mm 19.7° 1003.1 hPa 4.1 m/s 13.9 mm 19.7° 1003.1 hPa 4.1 m/s 8.1 mm 20.0° 1003.9 hPa 3.3 m/s 0.0 mm 19.1° 1002.7 hPa 4.6 m/s
21:00 18.7° 1003.2 hPa 4.0 m/s 0.0 mm 18.9° 1002.2 hPa 4.4 m/s 14.2 mm 18.7° 1002.5 hPa 4.0 m/s 0.0 mm 19.1° 1003.6 hPa 3.4 m/s 0.0 mm 17.8° 1002.0 hPa 4.0 m/s
 02:02     19:07    Daglengte: 17:05 Morgen
00:00 18.3° 1001.9 hPa 3.7 m/s 0.0 mm 17.7° 1001.7 hPa 3.7 m/s 14.7 mm 18.2° 1001.2 hPa 3.9 m/s 0.0 mm 18.7° 1002.1 hPa 2.7 m/s 0.0 mm 17.8° 1000.7 hPa 5.2 m/s
03:00 18.2° 1000.9 hPa 3.3 m/s 0.0 mm 17.6° 1000.5 hPa 3.5 m/s 15.2 mm 18.3° 999.7 hPa 4.1 m/s 0.0 mm 18.5° 1001.1 hPa 2.6 m/s 0.0 mm 17.9° 1000.8 hPa 3.8 m/s
06:00 19.2° 1000.0 hPa 4.7 m/s 4.3 mm 20.6° 999.8 hPa 4.3 m/s 15.6 mm 19.1° 998.8 hPa 5.6 m/s 0.6 mm 19.6° 1000.2 hPa 2.9 m/s 0.0 mm 20.6° 999.6 hPa 4.1 m/s
09:00 20.0° 999.5 hPa 5.7 m/s 4.4 mm 23.1° 999.2 hPa 6.8 m/s 17.0 mm 19.4° 998.5 hPa 5.9 m/s 0.9 mm 20.8° 999.6 hPa 3.7 m/s 0.0 mm 24.5° 999.0 hPa 5.9 m/s
12:00 21.8° 999.1 hPa 6.8 m/s 0.0 mm 23.2° 999.1 hPa 7.4 m/s 17.2 mm 20.0° 997.9 hPa 7.0 m/s 0.9 mm 23.1° 999.3 hPa 5.3 m/s 0.0 mm 23.8° 999.2 hPa 6.4 m/s
15:00 21.4° 998.6 hPa 6.5 m/s 0.0 mm 22.3° 998.5 hPa 7.1 m/s 17.2 mm 21.0° 997.3 hPa 7.4 m/s 0.1 mm 22.5° 998.9 hPa 5.2 m/s 0.0 mm 22.4° 999.0 hPa 6.3 m/s
18:00 19.4° 997.8 hPa 5.5 m/s 0.0 mm 20.4° 997.5 hPa 5.8 m/s 17.2 mm 18.7° 996.6 hPa 6.2 m/s 0.0 mm 19.5° 998.0 hPa 4.0 m/s 0.0 mm 19.4° 998.1 hPa 5.2 m/s
21:00 16.9° 996.8 hPa 3.9 m/s 0.0 mm 16.6° 996.5 hPa 3.8 m/s 17.3 mm 17.1° 995.9 hPa 5.2 m/s 0.0 mm 16.0° 996.8 hPa 2.7 m/s 0.0 mm 17.6° 997.5 hPa 4.6 m/s
 02:04     19:04    Daglengte: 17:00 Vrijdag 30 Jul
00:00 15.7° 995.4 hPa 4.2 m/s 0.0 mm 12.6° 996.4 hPa 3.0 m/s 17.3 mm 15.9° 995.0 hPa 4.6 m/s 0.1 mm 15.5° 995.1 hPa 2.9 m/s 0.0 mm 16.5° 996.8 hPa 4.3 m/s
03:00 15.6° 993.8 hPa 3.5 m/s 0.0 mm 16.3° 994.4 hPa 3.5 m/s 17.4 mm 15.5° 993.7 hPa 4.4 m/s 0.0 mm 15.4° 992.9 hPa 2.8 m/s 0.0 mm 14.6° 995.3 hPa 3.8 m/s
06:00 16.6° 992.9 hPa 4.2 m/s 1.8 mm 18.1° 993.8 hPa 5.6 m/s 18.5 mm 16.5° 992.8 hPa 4.8 m/s 0.1 mm 16.5° 992.1 hPa 4.0 m/s 0.0 mm 16.5° 994.4 hPa 4.9 m/s
09:00 17.0° 992.5 hPa 4.9 m/s 5.6 mm 17.9° 993.9 hPa 5.7 m/s 20.6 mm 16.9° 992.2 hPa 4.2 m/s 0.8 mm 17.7° 993.5 hPa 5.9 m/s
12:00 17.0° 991.8 hPa 4.4 m/s 7.3 mm 16.8° 994.1 hPa 2.9 m/s 30.7 mm 17.8° 991.1 hPa 4.4 m/s 0.7 mm 15.5° 993.1 hPa 5.0 m/s
15:00 17.7° 990.2 hPa 4.6 m/s 16.7 mm 17.7° 992.5 hPa 5.9 m/s 42.6 mm 18.9° 990.0 hPa 2.4 m/s 0.0 mm 15.2° 991.0 hPa 3.4 m/s
18:00 16.2° 989.6 hPa 1.6 m/s 23.3 mm 15.6° 990.3 hPa 1.2 m/s 46.1 mm 17.9° 990.4 hPa 1.2 m/s 0.0 mm 14.4° 990.8 hPa 0.8 m/s
21:00 14.5° 989.8 hPa 3.5 m/s 11.3 mm 12.0° 989.6 hPa 2.4 m/s 46.5 mm 14.8° 992.3 hPa 3.4 m/s 0.0 mm 12.5° 992.0 hPa 2.3 m/s
 02:07     19:02    Daglengte: 16:55 Zaterdag 31 Jul
00:00 13.7° 991.9 hPa 3.2 m/s 0.0 mm 9.9° 991.3 hPa 2.4 m/s 46.5 mm 14.2° 994.0 hPa 3.5 m/s 0.0 mm 11.7° 994.1 hPa 2.3 m/s
03:00 13.8° 993.8 hPa 1.8 m/s 0.0 mm 10.9° 992.9 hPa 1.6 m/s 46.5 mm 14.8° 995.2 hPa 1.7 m/s 0.0 mm 11.5° 995.6 hPa 2.0 m/s
06:00 16.5° 995.1 hPa 2.0 m/s 5.3 mm 16.2° 994.0 hPa 1.2 m/s 46.5 mm 18.0° 995.9 hPa 2.5 m/s 0.2 mm 16.5° 996.4 hPa 2.7 m/s
09:00 20.6° 996.1 hPa 3.3 m/s 5.4 mm 21.6° 994.9 hPa 2.3 m/s 46.5 mm 20.4° 996.5 hPa 3.6 m/s 0.4 mm 21.3° 997.3 hPa 2.5 m/s
12:00 20.3° 996.4 hPa 3.8 m/s 16.3 mm 23.4° 995.4 hPa 5.3 m/s 46.5 mm 19.5° 996.6 hPa 3.4 m/s 1.2 mm 21.9° 998.1 hPa 3.9 m/s
15:00 22.3° 995.8 hPa 4.5 m/s 46.6 mm 22.3° 995.8 hPa 4.5 m/s 46.6 mm 20.4° 998.1 hPa 3.5 m/s
18:00 18.8° 996.2 hPa 3.4 m/s 49.2 mm 18.8° 996.2 hPa 3.4 m/s 49.2 mm 17.3° 997.7 hPa 1.5 m/s
21:00 15.3° 996.8 hPa 2.5 m/s 29.0 mm 15.3° 996.8 hPa 2.5 m/s 29.0 mm
 02:09     18:59    Daglengte: 16:50 Zondag 01 Aug
00:00 14.7° 995.5 hPa 2.7 m/s 30.7 mm 14.7° 995.5 hPa 2.7 m/s 30.7 mm
03:00 13.8° 994.2 hPa 1.9 m/s 33.4 mm 13.8° 994.2 hPa 1.9 m/s 33.4 mm
06:00 16.0° 993.6 hPa 0.5 m/s 34.4 mm 16.0° 993.6 hPa 0.5 m/s 34.4 mm
09:00 19.9° 995.0 hPa 2.9 m/s 36.0 mm 19.9° 995.0 hPa 2.9 m/s 36.0 mm
12:00 22.8° 995.9 hPa 4.3 m/s 36.5 mm 22.8° 995.9 hPa 4.3 m/s 36.5 mm
15:00 21.1° 997.9 hPa 5.1 m/s 36.7 mm 21.1° 997.9 hPa 5.1 m/s 36.7 mm
18:00 17.3° 999.6 hPa 3.6 m/s 36.8 mm 17.3° 999.6 hPa 3.6 m/s 36.8 mm
21:00 14.6° 1000.5 hPa 2.2 m/s 36.9 mm 14.6° 1000.5 hPa 2.2 m/s 36.9 mm
 02:12     18:57    Daglengte: 16:45 Maandag 02 Aug
00:00 13.7° 1001.3 hPa 1.5 m/s 37.1 mm 13.7° 1001.3 hPa 1.5 m/s 37.1 mm
03:00 13.4° 1001.2 hPa 1.1 m/s 37.1 mm 13.4° 1001.2 hPa 1.1 m/s 37.1 mm
06:00 17.3° 1001.4 hPa 1.2 m/s 37.2 mm 17.3° 1001.4 hPa 1.2 m/s 37.2 mm
09:00 20.1° 1001.5 hPa 3.3 m/s 37.8 mm 20.1° 1001.5 hPa 3.3 m/s 37.8 mm
12:00 22.0° 1001.2 hPa 4.1 m/s 37.9 mm 22.0° 1001.2 hPa 4.1 m/s 37.9 mm
15:00 20.4° 1001.7 hPa 4.4 m/s 37.9 mm 20.4° 1001.7 hPa 4.4 m/s 37.9 mm
18:00 16.1° 1001.6 hPa 2.1 m/s 37.9 mm 16.1° 1001.6 hPa 2.1 m/s 37.9 mm
21:00 12.8° 1002.0 hPa 1.7 m/s 37.9 mm 12.8° 1002.0 hPa 1.7 m/s 37.9 mm
 02:14     18:54    Daglengte: 16:40 Dinsdag 03 Aug
00:00 11.6° 1002.0 hPa 1.8 m/s 37.9 mm 11.6° 1002.0 hPa 1.8 m/s 37.9 mm
03:00 11.1° 1002.5 hPa 1.7 m/s 37.9 mm 11.1° 1002.5 hPa 1.7 m/s 37.9 mm
06:00 16.1° 1002.5 hPa 2.5 m/s 37.9 mm 16.1° 1002.5 hPa 2.5 m/s 37.9 mm
09:00 20.0° 1003.0 hPa 2.9 m/s 37.9 mm 20.0° 1003.0 hPa 2.9 m/s 37.9 mm
12:00 19.8° 1003.5 hPa 3.0 m/s 37.9 mm 19.8° 1003.5 hPa 3.0 m/s 37.9 mm
15:00 19.9° 1004.5 hPa 3.8 m/s 37.9 mm 19.9° 1004.5 hPa 3.8 m/s 37.9 mm
18:00 15.1° 1005.9 hPa 3.0 m/s 37.9 mm 15.1° 1005.9 hPa 3.0 m/s 37.9 mm
21:00 10.1° 1007.8 hPa 2.2 m/s 37.9 mm 10.1° 1007.8 hPa 2.2 m/s 37.9 mm
 02:16     18:51    Daglengte: 16:35 Woensdag 04 Aug
00:00 9.2° 1008.6 hPa 2.1 m/s 37.9 mm 9.2° 1008.6 hPa 2.1 m/s 37.9 mm
03:00 9.3° 1009.2 hPa 1.8 m/s 37.9 mm 9.3° 1009.2 hPa 1.8 m/s 37.9 mm
06:00 15.7° 1010.1 hPa 1.8 m/s 37.9 mm 15.7° 1010.1 hPa 1.8 m/s 37.9 mm
09:00 20.2° 1010.1 hPa 2.0 m/s 37.9 mm 20.2° 1010.1 hPa 2.0 m/s 37.9 mm
12:00 19.2° 1011.1 hPa 4.5 m/s 37.9 mm 19.2° 1011.1 hPa 4.5 m/s 37.9 mm
15:00 15.4° 1012.2 hPa 3.3 m/s 38.0 mm 15.4° 1012.2 hPa 3.3 m/s 38.0 mm
18:00 13.4° 1012.5 hPa 1.3 m/s 38.6 mm 13.4° 1012.5 hPa 1.3 m/s 38.6 mm
 02:19     18:49    Daglengte: 16:30 Donderdag 05 Aug
00:00 13.1° 1014.3 hPa 1.2 m/s 38.6 mm 13.1° 1014.3 hPa 1.2 m/s 38.6 mm
06:00 15.2° 1015.7 hPa 0.7 m/s 38.6 mm 15.2° 1015.7 hPa 0.7 m/s 38.6 mm
12:00 22.2° 1015.5 hPa 2.4 m/s 38.6 mm 22.2° 1015.5 hPa 2.4 m/s 38.6 mm
18:00 15.5° 1016.8 hPa 1.6 m/s 38.6 mm 15.5° 1016.8 hPa 1.6 m/s 38.6 mm
 02:21     18:46    Daglengte: 16:25 Vrijdag 06 Aug
00:00 11.4° 1018.2 hPa 0.9 m/s 38.6 mm 11.4° 1018.2 hPa 0.9 m/s 38.6 mm
06:00 17.8° 1018.1 hPa 2.1 m/s 38.6 mm 17.8° 1018.1 hPa 2.1 m/s 38.6 mm
12:00 23.4° 1017.5 hPa 3.3 m/s 38.6 mm 23.4° 1017.5 hPa 3.3 m/s 38.6 mm
18:00 17.9° 1016.7 hPa 2.3 m/s 38.6 mm 17.9° 1016.7 hPa 2.3 m/s 38.6 mm
 02:24     18:43    Daglengte: 16:19 Zaterdag 07 Aug
00:00 14.9° 1015.8 hPa 3.1 m/s 38.6 mm 14.9° 1015.8 hPa 3.1 m/s 38.6 mm
06:00 17.6° 1009.8 hPa 1.7 m/s 0.6 mm
12:00 21.3° 1009.4 hPa 1.9 m/s 0.4 mm
18:00 17.6° 1008.8 hPa 1.3 m/s 0.8 mm
 02:26     18:41    Daglengte: 16:15 Zondag 08 Aug
00:00 15.1° 1008.6 hPa 2.0 m/s 0.4 mm
06:00 17.3° 1008.1 hPa 1.9 m/s 1.8 mm
12:00 20.4° 1008.9 hPa 0.8 m/s 2.5 mm
18:00 17.2° 1009.4 hPa 0.5 m/s 0.9 mm
 02:29     18:38    Daglengte: 16:09 Maandag 09 Aug
00:00 14.5° 1010.2 hPa 0.5 m/s 0.2 mm
06:00 17.4° 1010.4 hPa 0.8 m/s 0.4 mm
12:00 21.2° 1011.3 hPa 1.6 m/s 0.8 mm
18:00 17.4° 1011.5 hPa 0.6 m/s 1.2 mm
 02:31     18:35    Daglengte: 16:04 Dinsdag 10 Aug
00:00 14.8° 1012.0 hPa 0.8 m/s 0.5 mm
06:00 17.4° 1011.6 hPa 1.2 m/s 0.5 mm
12:00 20.9° 1011.6 hPa 1.6 m/s 1.4 mm
18:00 17.2° 1010.8 hPa 0.8 m/s 1.6 mm
 02:33     18:32    Daglengte: 15:59 Woensdag 11 Aug
00:00 15.2° 1010.5 hPa 0.8 m/s 1.0 mm
06:00 17.4° 1009.9 hPa 0.8 m/s 0.7 mm
12:00 20.7° 1010.4 hPa 1.6 m/s 1.4 mm
18:00 17.1° 1010.4 hPa 0.8 m/s 0.6 mm
 02:36     18:29    Daglengte: 15:53 Donderdag 12 Aug
00:00 14.2° 1010.5 hPa 0.5 m/s 0.4 mm